Home > Time Zones > World Clock > Weather > Qatar > Doha > Past weeks

Flag for Qatar Weather past 2 weeks in Doha, Qatar

Now
91 °F

Haze.


Feels Like: 114 °F
Forecast: 88 / 109 °F
Wind: 2 mph from North

Location: Doha International Airport

Current Time: Aug 2, 2015 at 6:08:20 AM

Latest Report: Aug 2, 2015 at 5:00 AM


Visibility: 3 mi

Pressure: 29.53 "Hg

Humidity: 75%

Dew point: 82 °F

Historic Weather in Doha — Graph

°F

Doha temperature yesterday

Maximum temperature yesterday: 115 °F (at 11:00 AM)
Minimum temperature yesterday: 91 °F (at 2:00 AM)
Average temperature yesterday: 98 °F

Past Weeks' High & Low Weather Summary

 TemperatureHumidityPressure
High118 °F (Jul 27, 5:00 PM)84% (Jul 23, 2:00 AM)32.26 "Hg (Jul 23, 2:00 AM)
Low88 °F (Jul 23, 4:00 AM)6% (Jul 19, 1:00 PM)29.36 "Hg (Jul 18, 5:00 AM)
Average99 °F46%29.46 "Hg
* Reported Jul 18 5:00 AM — Aug 2 5:00 AM, Doha, Weather by CustomWeather, © 2015

Note: Actual official high and low records may vary slightly from our data, if they occured in-between our weather recording intervals... More about our weather records

Advertising

Doha weather history for previous 24 hours

 ConditionsComfort  
Time TempWeatherWind HumidityBarometerVisibility
5:00 AM
Sun, Aug 2
91 °FHaze.2 mph75%29.53 "Hg3 mi
4:00 AM91 °FHaze.5 mph75%29.53 "Hg3 mi
3:00 AM91 °FHaze.6 mph75%29.53 "Hg3 mi
2:00 AM91 °FHaze.6 mph75%29.53 "Hg3 mi
12:00 AM93 °FClear.3 mph71%29.50 "Hg4 mi
11:00 PM
Sat, Aug 1
95 °FClear.5 mph67%29.53 "Hg4 mi
10:00 PM93 °FClear.6 mph71%29.53 "Hg4 mi
9:00 PM93 °FClear.6 mph75%29.50 "Hg4 mi
8:00 PM93 °FClear.7 mph75%29.50 "Hg4 mi
7:00 PM95 °FHaze.8 mph71%N/A3 mi
6:00 PM95 °FHaze.13 mph67%N/A2 mi
5:00 PM99 °FHaze.9 mph60%29.47 "Hg3 mi
4:00 PM99 °FClear.13 mph64%29.47 "Hg4 mi
3:00 PM100 °FClear.15 mph53%29.47 "Hg4 mi
2:00 PM102 °FClear.13 mph54%29.50 "Hg4 mi
1:00 PM102 °FClear.12 mph57%29.50 "Hg6 mi
12:00 PM104 °FSunny.12 mph45%29.50 "Hg10 mi
11:00 AM115 °FSunny.2 mph29%29.53 "Hg10 mi
10:00 AM111 °FClear.7 mph21%29.53 "Hg5 mi
9:00 AM106 °FClear.5 mph32%29.53 "Hg6 mi
8:00 AM102 °FClear.5 mph37%29.53 "Hg6 mi
7:00 AM97 °FClear.5 mph56%29.50 "Hg5 mi
6:00 AM93 °FClear.16 mph75%29.50 "Hg6 mi
Weather by CustomWeather, © 2015

See weather overviewHow to use our weather pages